Location: Buchreddip?lem
(16.8778°N, 80.5261°E)
Time: 12:26:12
(UTC+00:00)

Daily predictions for brighter satellites

Satellite Brightness Start Highest point End
(mag) Time Altitude Azimuth Time Altitude Azimuth Time Altitude Azimuth
COSMOS 2455 4.4 12:17:03 10° SW 12:22:28 35° WNW 12:27:55 10° N
COSMO-SKYMED 1 2.6 12:20:03 10° NNE 12:24:21 67° E 12:28:39 10° S
CZ-4C R/B 3.8 12:26:16 10° NE 12:29:13 29° E 12:32:13 10° SSE
Okean O Rocket 3.0 12:26:42 10° ESE 12:29:39 18° ENE 12:32:37 10° NNE
Sakura Rocket 3.7 12:23:57 10° WNW 12:30:14 54° NNE 12:34:48 10° E
NOSS 3-1 (C) 4.4 12:22:17 10° NNW 12:30:42 63° ENE 12:39:45 10° SE
ARGOS 4.2 12:26:53 10° ESE 12:31:02 23° ENE 12:35:10 10° NNE
Cosmos 990 Rocket 3.9 12:27:16 10° N 12:32:23 67° ENE 12:37:28 10° SSE
Meteor 2-6 Rocket 4.4 12:29:01 10° S 12:34:45 56° E 12:40:22 10° NNE
Cosmos 1633 Rocket 4.4 12:32:56 10° NE 12:35:57 18° E 12:38:59 10° SE
Cosmos 1151 Rocket 3.0 12:33:02 10° S 12:37:19 88° E 12:41:37 10° N
PAYLOAD B 4.3 12:33:24 10° SSE 12:38:52 57° ENE 12:44:20 10° N
SWIFT 2.6 12:38:31 10° WNW 12:42:39 52° N 12:46:09 14° ENE
CZ-4B R/B 3.5 12:41:37 10° SE 12:46:49 43° ENE 12:51:54 10° N
Atlas Centaur 2 1.7 12:43:31 10° WNW 12:47:01 54° SSW 12:50:35 10° SE
Cosmos 1809 Rocket 4.5 12:42:18 10° N 12:48:22 88° W 12:54:26 10° S
Cosmos 1328 Rocket 3.5 12:46:33 10° S 12:50:58 87° E 12:55:24 10° N
Meteor 1-10 Rocket 4.4 12:46:15 10° S 12:52:00 57° E 12:57:39 10° NNE
Cosmos 1602 4.4 12:49:03 10° NNW 12:52:51 58° W 12:56:40 10° S
X-37B 2.6 12:52:06 10° W 12:54:19 20° NW 12:56:30 10° N
Meteor 2-21 Rocket 4.4 12:48:38 10° N 12:54:35 58° E 13:00:30 10° SSE
MOS 1-B 4.3 12:50:03 10° SSE 12:55:48 78° ENE 13:01:34 10° N
CZ-2D R/B 3.7 12:53:43 10° S 12:57:32 65° W 13:01:20 10° NNW
CZ-4 R/B 3.7 12:57:27 10° ESE 12:57:28 10° ESE 12:57:28 10° ESE
Cosmos 1666 Rocket 3.7 12:56:23 10° N 13:00:39 51° E 13:04:53 10° SSE
SL-08 RB Rocket 4.5 12:57:02 10° SE 13:01:05 30° ENE 13:05:07 10° NNE
DMSP B5D2-2 4.1 12:56:19 10° NNE 13:01:27 57° ESE 13:06:35 10° S
Tiangong 1.0 12:59:21 10° SW 13:02:28 71° SE 13:03:47 31° ENE
CZ-4C R/B 4.4 12:59:57 10° NNE 13:04:04 16° NE 13:04:04 16° NE
Cosmos 2360 4.1 13:01:09 10° N 13:06:50 66° ENE 13:12:28 10° SSE
CZ-2C R/B 4.0 13:03:04 10° N 13:07:46 37° WNW 13:12:30 10° SW
GPS 2-15 Rocket1 3.2 13:04:47 10° W 13:09:22 59° N 13:11:34 29° ENE
Aurora 2 Rocket 3.8 13:06:26 10° WNW 13:11:43 47° NNE 13:15:43 25° ENE
BREEZE-M DEB (TANK) 4.3 13:13:00 10° SSE 13:13:38 14° SE 13:13:38 14° SE
CZ-2C R/B 3.5 13:16:30 10° WNW 13:18:53 15° NNW 13:20:28 12° N
Cosmos 836 Rocket 4.4 13:15:10 10° S 13:20:26 81° ESE 13:24:36 17° NNE
Cosmos 1867 3.5 13:16:39 10° SSW 13:22:03 87° ESE 13:25:34 23° NNE
H-2A R/B 3.2 13:19:13 10° S 13:24:17 45° W 13:29:15 10° NNW
BREEZE M DEB (TANK) 4.2 13:15:50 10° NNW 13:24:22 28° NNE 13:24:59 27° NE
deb Chang Zheng 4 4.1 13:24:52 10° S 13:29:04 57° WSW 13:33:17 10° NNW
Cosmos 1515 Rocket 4.2 13:27:20 10° SSW 13:31:42 56° W 13:36:04 10° N
H-2A R/B 2.0 13:30:03 32° NNE 13:32:07 79° ESE 13:36:34 10° S
Meteosat 1 Rocket2 2.4 13:28:17 10° WSW 13:32:10 81° SSE 13:32:23 76° ESE
BREEZE-M DEB (TANK) 2.7 13:31:54 10° WSW 13:35:52 43° NW 13:36:13 41° NNW
USA 32 4.0 13:31:52 10° S 13:37:06 87° W 13:41:31 15° N
Aureole 3 Rocket 3.0 13:41:57 10° SSW 13:44:47 58° WSW 13:44:47 58° WSW
Cosmos 2266 Rocket 3.9 13:39:55 10° N 13:46:17 71° E 13:52:39 10° S
Cosmos 2084 4.4 13:43:44 10° NW 13:48:07 52° WSW 13:52:38 10° S
Genesis I 4.1 13:44:27 10° SSW 13:46:56 39° S 13:46:56 39° S
Cosmos 1697 Rocket 4.1 13:44:16 10° NW 13:49:23 37° WSW 13:54:31 10° S
Spot 2 4.3 13:45:47 10° SSE 13:50:44 82° ENE 13:53:20 30° N
Cosmos 2369 4.1 13:46:52 10° NNW 13:52:30 63° WSW 13:58:06 10° S
Cosmos 773 Rocket 4.5 13:48:05 10° S 13:52:05 45° SE 13:52:05 45° SE
Cosmos 1980 Rocket 2.1 13:47:45 10° NNW 13:53:23 84° WSW 13:58:58 10° SSE
USA 234 3.1 13:48:08 14° SE 13:53:50 80° NE 14:00:22 10° NW
Centaur AC-69 4.4 13:51:54 10° W 13:53:14 23° WSW 13:53:14 23° WSW
USA 229 DEB 4.4 13:49:10 10° NNW 13:56:50 65° WSW 14:04:40 10° SSE
YAOGAN 1 3.0 13:52:35 10° S 13:56:01 54° SSW 13:56:01 54° SSW
USA 229 4.3 13:49:16 10° NNW 13:56:56 65° WSW 14:04:45 10° SSE
NOSS 3-3 (A) 4.4 13:54:19 10° SW 13:59:29 49° WNW 14:01:25 34° NNW
NOSS 3-3 (C) 4.3 13:54:23 10° SW 13:59:35 49° WNW 14:01:29 35° NNW
Okean O Rocket 4.0 14:02:15 10° SSW 14:05:44 23° W 14:09:13 10° NW
ATLAS 5 CENTAUR R/B 2.3 14:11:17 10° W 14:16:56 43° W 14:16:56 43° W
CZ-4 R/B 4.1 14:31:42 10° SSW 14:33:28 18° SW 14:33:28 18° SW
CZ-4C R/B 4.2 14:45:31 10° NNW 14:49:26 33° NNW 14:49:26 33° NNW
H-2A R/B 4.1 14:25:21 10° WNW 15:12:05 80° SW 15:12:18 80° SSW
Cosmos 2369 Rocket 4.2 22:03:34 10° SSE 22:11:08 21° ENE 22:13:17 10° NE
BREEZE-M DEB (TANK) 4.1 22:16:51 77° SE 22:16:51 77° SE 22:33:26 10° SE
NATO 3D Rocket 4.3 22:41:02 50° NE 22:41:02 50° NE 22:46:30 10° ENE
Hubble Space Telescope 3.3 22:46:53 15° NE 22:46:53 15° NE 22:47:58 10° ENE
SL-08 R/B 4.4 22:44:46 10° S 22:47:49 38° S 22:47:49 38° S
Cosmos 1072 Rocket 4.3 22:50:31 72° NNW 22:51:12 87° W 22:57:19 10° S
Tsikada Rocket 3.9 22:50:44 10° S 22:56:53 88° E 23:03:06 10° N
Cosmos 2082 Rocket 2.3 22:56:46 51° N 22:58:10 73° ENE 23:03:45 10° SSE
Envisat 4.0 23:01:33 10° NNE 23:06:25 47° E 23:11:16 10° S
YAOGAN 6 3.7 23:05:55 14° NNE 23:08:43 44° E 23:12:09 10° S
OAO 2 Rocket 4.3 23:09:33 19° SSW 23:13:02 46° SE 23:17:57 10° ENE
Chandra Rocket (1) 3.1 23:13:57 25° NNE 23:13:57 25° NNE 23:15:38 10° ENE
Delta 2 Rocket 3.7 23:14:23 50° S 23:14:23 50° S 23:18:04 10° SE
COSMOS 2406 3.9 23:17:13 35° WSW 23:17:13 35° WSW 23:21:36 10° SSW
DELTA 4 R/B 3.6 23:17:22 13° SSE 23:17:35 13° SE 23:18:47 10° ESE
Meteor 2-3 Rocket 3.8 23:13:22 10° SSW 23:18:43 48° W 23:19:47 42° NW
Cosmos 1833 Rocket 4.2 23:23:41 19° SW 23:23:41 19° SW 23:25:59 10° SSW
COSMOS 2455 3.6 23:22:22 31° WSW 23:22:22 31° WSW 23:27:22 10° SSW
ATLAS 5 CENTAUR R/B 2.7 23:19:57 10° S 23:23:27 37° ESE 23:26:55 10° NE
Cosmos 1933 3.3 23:27:30 18° N 23:30:21 79° E 23:34:21 10° S
CZ-3 R/B 3.1 23:02:48 10° WSW 23:31:04 77° SSE 23:38:00 10° ENE
Cosmos 1570 Rocket 4.3 23:28:02 10° N 23:33:15 67° ENE 23:38:29 10° SSE
Cosmos 540 Rocket 4.1 23:34:32 33° W 23:35:07 34° W 23:39:44 10° SSW
Cosmos 1814 Rocket 3.9 23:35:41 13° NNW 23:40:14 84° WSW 23:45:23 10° S
FUSE 3.9 23:38:21 22° WSW 23:41:53 89° SSE 23:47:17 10° ENE
SJ 16-02 3.3 23:40:22 10° SSE 23:44:14 31° E 23:48:05 10° NE
Ariane H10+ 4.3 23:47:03 10° SW 23:48:55 17° S 23:51:18 10° SE
Meteor 1-26 Rocket 4.2 23:45:48 10° N 23:51:36 85° W 23:57:11 10° S
Cosmos 2369 Rocket 3.4 23:53:21 19° NW 23:53:21 19° NW 23:56:15 10° NNW
ARIANE 5 R/B 3.2 23:52:35 10° SW 23:55:09 18° S 23:57:17 10° SE
